Location: *
(35.2348°S, 91.3916°E)
Time: 15:35:26
(UTC+00:00)

IDEFIX/ARIANE 42P - Pass Details

Date: 23 October 2019
Orbit: 785 x 803 km, 98.3° (Epoch: 14 November)

Event Time Altitude Azimuth Distance (km) Brightness Sun altitude
Exits shadow 21:32:36 29° 317° (NW) 1,417 3.3 -17.7°
Maximum altitude 21:34:20 37° 278° (W) 1,219 3.1 -17.3°
Drops below altitude 10° 21:39:10 10° 211° (SSW) 2,373 5.0 -16.5°
Sets 21:41:41 0° 202° (SSW) 3,311 5.9 -16.0°
